Starlink 35856

operational
NORAD ID: 67013 Int'l Des: 2025-293 Owner: SPXS Country: US Constellation: starlink
LEOCIRCULAR

About Starlink 35856

Description loading...

Live Position

Loading 3D Globe...

Upcoming Passes

Altitude History

Altitude vs Time

uPlot chart will show altitude changes over time

Two-Line Element Set

1 67013C 25293L 25346.10187500 -.00280570 00000+0 -38961-3 0 3469
2 67013 69.9973 325.9327 0004516 267.1078 188.2615 16.06006400 15
Epoch: Dec 12, 2025 • Age: 50 hours

Current Status

Altitude 280.8 km
Velocity 7.74 km/s
Sub-Earth Point -59.82°S, 174.28°E
Launch Date Dec 10, 2025
Age 3 days
Type internet

Technical Details

Classification Payload
Mass 575.00 kg
Dry Mass 530.00 kg
Total Mass 575.00 kg
Length 0.30 m
Diameter 4.10 m
Span 29.00 m
Shape Box + pan
Manufacturer SPXS
Bus Type Starlink V2MO
Phase Status In Orbit
Owner/State SPXS/US

Large Constellations

Loading constellations...